Flag for U.S.A. Weather past 2 weeks in Springfield, Missouri, U.S.A.

Now
42 °F

Clear.


Feels Like: 36 °F
Forecast: 36 / 59 °F
Wind: 12 mph from Southeast

Location: Springfield Regional Airport


UV Index: 5 (Moderate)

Visibility: 10 mi


Pressure: 30.14 "Hg

Humidity: 51%

Dew point: 25 °F

Location of SpringfieldLocation

Historic Weather in Springfield

°F

Springfield temperature yesterday

Maximum temperature yesterday: 53 °F (at 4:52 PM)
Minimum temperature yesterday: 25 °F (at 6:52 AM)
Average temperature yesterday: 40 °F

Past Weeks' High & Low Weather Summary

 TemperatureHumidityPressure
High80 °F (Apr 3, 3:52 PM)93% (Apr 2, 2:04 PM)30.26 "Hg (Apr 2, 2:04 PM)
Low25 °F (Apr 15, 6:52 AM)26% (Apr 9, 1:52 PM)29.50 "Hg (Apr 13, 4:52 PM)
Average54 °F62%29.91 "Hg
* Reported Mar 31 10:52 PM — Apr 15 10:52 PM, Springfield, Weather by CustomWeather, © 2014

Note: Actual official high and low records may vary slightly from our data, if they occured in-between our weather recording intervals... More about our weather records

Advertising

Historic Weather Conditions — Data for Previous 24 hours

 ConditionsComfort  
Time TempWeatherWind HumidityBarometerVisibility
10:52 PM
Apr 15
41 °FClear.8 mph55%30.15 "Hg10 mi
9:52 PM40 °FClear.7 mph63%30.16 "Hg10 mi
8:52 PM45 °FClear.5 mph45%30.14 "Hg10 mi
7:52 PM50 °FSunny.No wind33%30.13 "Hg10 mi
6:52 PM50 °FSunny.5 mph35%30.14 "Hg10 mi
5:52 PM52 °FSunny.3 mph31%30.14 "Hg10 mi
4:52 PM53 °FSunny.5 mph28%30.15 "Hg10 mi
3:52 PM51 °FSunny.No wind31%30.17 "Hg10 mi
2:52 PM50 °FSunny.8 mph32%30.19 "Hg10 mi
1:52 PM48 °FSunny.8 mph39%30.22 "Hg10 mi
12:52 PM47 °FScattered clouds.9 mph41%30.23 "Hg10 mi
11:52 AM44 °FSunny.5 mph43%30.25 "Hg10 mi
10:52 AM42 °FSunny.No wind47%30.25 "Hg10 mi
9:52 AM38 °FSunny.5 mph51%30.25 "Hg10 mi
8:52 AM36 °FSunny.No wind59%30.26 "Hg10 mi
7:52 AM30 °FSunny.No wind79%30.24 "Hg10 mi
6:52 AM25 °FPassing clouds.No wind81%30.22 "Hg10 mi
5:52 AM27 °FPassing clouds.No wind75%30.21 "Hg10 mi
4:52 AM30 °FPassing clouds.3 mph69%30.20 "Hg10 mi
3:52 AM29 °FPassing clouds.No wind72%30.19 "Hg10 mi
2:52 AM31 °FClear.5 mph67%30.18 "Hg10 mi
1:52 AM29 °FClear.6 mph72%30.19 "Hg10 mi
12:52 AM32 °FClear.5 mph64%30.18 "Hg10 mi
Weather by CustomWeather, © 2014

See weather overview